Location: McFarlands Corners
(41.4117°N, 81.3382°W)
Time: 13:25:11
(UTC+00:00)

Courier 1B Rocket - Pass Details

Date: 21 February 2026
Orbit: 920 x 1201 km, 28.2° (Epoch: 10 March)

Event Time Altitude Azimuth Distance (km) Brightness Sun altitude
Rises 02:42:32 0° 253° (WSW) 3,560 8.5 -40.6°
Reaches altitude 10° 02:45:43 10° 238° (WSW) 2,637 7.5 -41.1°
Enters shadow 02:45:56 11° 236° (SW) 2,582 7.4 -41.2°
Maximum altitude 02:50:21 21° 190° (S) 1,984 - -41.9°
Drops below altitude 10° 02:55:09 10° 143° (SE) 2,742 - -42.7°
Sets 02:58:32 0° 129° (SE) 3,742 - -43.3°
